Eugene, Missouri, United States (65032)
Lat: 38.35N, Lon: 92.4W
Wx Zone: MOZ048
Local Info
Past Weather Observations for Today

NOTE: This archive is for the closest National Weather Service station to Eugene. Information may differ from the station used for current weather conditions.

Click here for Long-term Archive

Time Weather Temperature Dewpoint Humidity Pressure Winds Precip Visibility
23:15
Clear
73°F / 23°C 68°F / 20°C 83% 30.04 in
(1017 mb)
SSE 3.5 mph
(SSE 6 kph)
- 10SM
22:55
Clear
73°F / 23°C 68°F / 20°C 83% 30.04 in
(1017 mb)
Calm - 10SM
22:35
Clear
75°F / 24°C 68°F / 20°C 78% 30.04 in
(1017 mb)
SSE 3.5 mph
(SSE 6 kph)
- 10SM
22:15
Clear
75°F / 24°C 68°F / 20°C 78% 30.04 in
(1017 mb)
SE 3.5 mph
(SE 6 kph)
- 10SM
21:55
Clear
75°F / 24°C 66°F / 19°C 74% 30.04 in
(1017 mb)
SSE 3.5 mph
(SSE 6 kph)
- 10SM
21:35
Clear
75°F / 24°C 66°F / 19°C 74% 30.04 in
(1017 mb)
Calm - 10SM
21:15
Clear
75°F / 24°C 66°F / 19°C 74% 30.04 in
(1017 mb)
SE 3.5 mph
(SE 6 kph)
- 10SM
20:55
Clear
77°F / 25°C 66°F / 19°C 69% 30.04 in
(1017 mb)
SE 3.5 mph
(SE 6 kph)
- 10SM
20:35
Clear
79°F / 26°C 66°F / 19°C 65% 30.04 in
(1017 mb)
SSE 3.5 mph
(SSE 6 kph)
- 10SM
20:15
Clear
79°F / 26°C 66°F / 19°C 65% 30.04 in
(1017 mb)
SSE 3.5 mph
(SSE 6 kph)
- 10SM
19:55
Clear
81°F / 27°C 66°F / 19°C 62% 30.04 in
(1017 mb)
SSE 4.6 mph
(SSE 7 kph)
- 10SM
19:35
Clear
81°F / 27°C 66°F / 19°C 62% 30.01 in
(1016 mb)
SSE 3.5 mph
(SSE 6 kph)
- 10SM
19:15
Clear
81°F / 27°C 66°F / 19°C 62% 30.01 in
(1016 mb)
SSE 3.5 mph
(SSE 6 kph)
- 10SM
18:55
Clear
82°F / 28°C 66°F / 19°C 58% 30.01 in
(1016 mb)
SE 3.5 mph
(SE 6 kph)
- 10SM
18:35
Clear
84°F / 29°C 66°F / 19°C 55% 30.01 in
(1016 mb)
SE 3.5 mph
(SE 6 kph)
- 10SM
18:15
Clear
84°F / 29°C 66°F / 19°C 55% 30.01 in
(1016 mb)
SE 3.5 mph
(SE 6 kph)
- 10SM
17:55
Clear
86°F / 30°C 66°F / 19°C 52% 30.01 in
(1016 mb)
SE 3.5 mph
(SE 6 kph)
- 10SM
17:35
Clear
88°F / 31°C 66°F / 19°C 49% 30.01 in
(1016 mb)
SSE 4.6 mph
(SSE 7 kph)
- 10SM
17:15
Clear
90°F / 32°C 68°F / 20°C 49% 30.01 in
(1016 mb)
SSE 4.6 mph
(SSE 7 kph)
- 10SM
16:55
Clear
90°F / 32°C 66°F / 19°C 46% 30.01 in
(1016 mb)
SSE 5.8 mph
(SSE 9 kph)
- 10SM
16:35
Clear
90°F / 32°C 66°F / 19°C 46% 30.01 in
(1016 mb)
S 5.8 mph
(S 9 kph)
- 10SM
16:15
Partly Cloudy
91°F / 33°C 66°F / 19°C 44% 30.01 in
(1016 mb)
SSE 5.8 mph
(SSE 9 kph)
- 8SM
15:55
Mostly Cloudy
91°F / 33°C 66°F / 19°C 44% 30.01 in
(1016 mb)
S 9.2 mph
(S 15 kph)
- 10SM
15:35
Mostly Cloudy
90°F / 32°C 68°F / 20°C 49% 30.01 in
(1016 mb)
S 8.1 mph
(S 13 kph)
- 10SM
15:15
Overcast
91°F / 33°C 66°F / 19°C 44% 30.01 in
(1016 mb)
S 9.2 mph
(S 15 kph)
- 10SM
14:55
Mostly Cloudy
90°F / 32°C 66°F / 19°C 46% 30.01 in
(1016 mb)
SW 9.2 mph
(SW 15 kph)
- 10SM
14:35
Partly Cloudy
91°F / 33°C 66°F / 19°C 44% 30.01 in
(1016 mb)
SW 6.9 mph
(SW 11 kph)
- 10SM
14:15
Partly Cloudy
91°F / 33°C 66°F / 19°C 44% 30.01 in
(1016 mb)
S 5.8 mph
(S 9 kph)
- 10SM
13:55
Partly Cloudy
93°F / 34°C 66°F / 19°C 41% 30.01 in
(1016 mb)
SSE 4.6 mph
(SSE 7 kph)
- 10SM
13:35
Partly Cloudy
91°F / 33°C 66°F / 19°C 44% 30.01 in
(1016 mb)
SE 4.6 mph
(SE 7 kph)
- 10SM
13:15
Partly Cloudy
91°F / 33°C 66°F / 19°C 44% 30.04 in
(1017 mb)
S 5.8 mph
(S 9 kph)
- 10SM
12:55
Partly Cloudy
91°F / 33°C 64°F / 18°C 41% 30.04 in
(1017 mb)
SSE 6.9 mph
(SSE 11 kph)
- 10SM
12:35
Clear
91°F / 33°C 66°F / 19°C 44% 30.04 in
(1017 mb)
S 3.5 mph
(S 6 kph)
- 10SM
12:15
Clear
91°F / 33°C 66°F / 19°C 44% 30.04 in
(1017 mb)
S 6.9 mph
(S 11 kph)
- 10SM
11:55
Partly Cloudy
91°F / 33°C 66°F / 19°C 44% 30.04 in
(1017 mb)
SSW 4.6 mph
(SSW 7 kph)
- 10SM
11:35
Partly Cloudy
90°F / 32°C 66°F / 19°C 46% 30.04 in
(1017 mb)
S 8.1 mph
(S 13 kph)
- 10SM
11:15
Clear
90°F / 32°C 66°F / 19°C 46% 30.06 in
(1018 mb)
SSW 5.8 mph
(SSW 9 kph)
- 10SM
10:55
Clear
88°F / 31°C 68°F / 20°C 52% 30.06 in
(1018 mb)
SSW 4.6 mph
(SSW 7 kph)
- 10SM
10:35
Clear
88°F / 31°C 68°F / 20°C 52% 30.06 in
(1018 mb)
SSW 4.6 mph
(SSW 7 kph)
- 10SM
10:15
Clear
88°F / 31°C 68°F / 20°C 52% 30.06 in
(1018 mb)
SSW 5.8 mph
(SSW 9 kph)
- 10SM
09:55
Clear
88°F / 31°C 70°F / 21°C 55% 30.06 in
(1018 mb)
SW 4.6 mph
(SW 7 kph)
- 10SM
09:35
Clear
84°F / 29°C 68°F / 20°C 58% 30.06 in
(1018 mb)
SSE 4.6 mph
(SSE 7 kph)
- 10SM
09:15
Clear
84°F / 29°C 70°F / 21°C 62% 30.06 in
(1018 mb)
SW 6.9 mph
(SW 11 kph)
- 10SM
08:55
Clear
82°F / 28°C 70°F / 21°C 66% 30.06 in
(1018 mb)
S 4.6 mph
(S 7 kph)
- 10SM
08:35
Clear
79°F / 26°C 68°F / 20°C 70% 30.04 in
(1017 mb)
S 4.6 mph
(S 7 kph)
- 10SM
08:15
Clear
77°F / 25°C 68°F / 20°C 74% 30.04 in
(1017 mb)
S 3.5 mph
(S 6 kph)
- 10SM
07:55
Clear
75°F / 24°C 66°F / 19°C 74% 30.04 in
(1017 mb)
SSE 3.5 mph
(SSE 6 kph)
- 10SM
07:35
Clear
75°F / 24°C 68°F / 20°C 78% 30.04 in
(1017 mb)
SSE 3.5 mph
(SSE 6 kph)
- 10SM
07:15
Clear
73°F / 23°C 66°F / 19°C 78% 30.04 in
(1017 mb)
SE 3.5 mph
(SE 6 kph)
- 10SM
06:55
Clear
72°F / 22°C 66°F / 19°C 83% 30.04 in
(1017 mb)
SSE 3.5 mph
(SSE 6 kph)
- 10SM
06:35
Clear
70°F / 21°C 66°F / 19°C 88% 30.04 in
(1017 mb)
S 3.5 mph
(S 6 kph)
- 9SM
06:15
Clear
70°F / 21°C 64°F / 18°C 83% 30.01 in
(1016 mb)
Calm - 8SM
05:55
Clear
70°F / 21°C 64°F / 18°C 83% 30.01 in
(1016 mb)
Calm - 8SM
05:35
Clear
70°F / 21°C 64°F / 18°C 83% 30.01 in
(1016 mb)
Calm - 10SM
05:15
Clear
70°F / 21°C 64°F / 18°C 83% 30.01 in
(1016 mb)
S 3.5 mph
(S 6 kph)
- 10SM
04:55
Clear
70°F / 21°C 64°F / 18°C 83% 30.01 in
(1016 mb)
SSE 3.5 mph
(SSE 6 kph)
- 10SM
04:35
Clear
70°F / 21°C 64°F / 18°C 83% 29.98 in
(1015 mb)
SE 3.5 mph
(SE 6 kph)
- 10SM
04:15
Clear
70°F / 21°C 64°F / 18°C 83% 29.98 in
(1015 mb)
SE 3.5 mph
(SE 6 kph)
- 10SM
03:55
Clear
70°F / 21°C 66°F / 19°C 88% 29.98 in
(1015 mb)
SE 3.5 mph
(SE 6 kph)
- 10SM
03:35
Clear
72°F / 22°C 66°F / 19°C 83% 29.98 in
(1015 mb)
SSE 4.6 mph
(SSE 7 kph)
- 10SM
03:15
Clear
72°F / 22°C 66°F / 19°C 83% 29.98 in
(1015 mb)
SSE 4.6 mph
(SSE 7 kph)
- 10SM
02:55
Clear
72°F / 22°C 66°F / 19°C 83% 29.98 in
(1015 mb)
SSE 4.6 mph
(SSE 7 kph)
- 10SM
02:35
Clear
72°F / 22°C 66°F / 19°C 83% 30.01 in
(1016 mb)
SSE 3.5 mph
(SSE 6 kph)
- 10SM
02:15
Clear
72°F / 22°C 66°F / 19°C 83% 29.98 in
(1015 mb)
SSE 4.6 mph
(SSE 7 kph)
- 10SM
01:55
Clear
72°F / 22°C 66°F / 19°C 83% 29.98 in
(1015 mb)
SE 4.6 mph
(SE 7 kph)
- 10SM
01:35
Clear
72°F / 22°C 66°F / 19°C 83% 29.98 in
(1015 mb)
SE 3.5 mph
(SE 6 kph)
- 10SM
01:15
Clear
72°F / 22°C 66°F / 19°C 83% 29.98 in
(1015 mb)
SSE 4.6 mph
(SSE 7 kph)
- 10SM
00:55
Clear
72°F / 22°C 66°F / 19°C 83% 29.98 in
(1015 mb)
Calm - 10SM
00:35
Clear
72°F / 22°C 66°F / 19°C 83% 29.98 in
(1015 mb)
Calm - 10SM
00:15
Clear
72°F / 22°C 66°F / 19°C 83% 29.98 in
(1015 mb)
SE 3.5 mph
(SE 6 kph)
- 10SM
Time Weather Temperature Dewpoint Humidity Pressure Winds Precip Visibility


Weather for websites

WeatherForYou.com, LLC is not responsible for any damages or problems caused by this service. Current weather conditions are obtained from the closest station including government and personal stations which may have varying degrees of accuracy. Weather forecasts are derived from the NOAA NDFD. Like all things, this site belongs to Jesus Christ... He just trusts us to maintain it. If you have any questions or comments email webmaster@weatherforyou.com

Copyright © 2015, WeatherForYou.com LLC. All rights reserved.